"Pseudo-MPEC" for P12fYSQ

Created 2025 Oct 18 1:35:14 UT using Find_Orb

Click here for an explanation of pseudo-MPECs

 
 Astrometry: 
     P12fYSQ* C2025 09 30.43982801 47 08.333-08 19 20.49   ~9ULZ 22.20wXNEOCPF51
     P12fYSQ  C2025 09 30.45167801 47 08.422-08 19 33.75   ~9ULZ 22.69wXNEOCPF51
     P12fYSQ  C2025 09 30.46360801 47 08.518-08 19 47.74   ~9ULZ 22.62wXNEOCPF51

Station data:
(F51) Pan-STARRS 1, Haleakala  (N20.707234 W156.255910)  US/Hawaii.
   Observers J. Herman, T. Lowe, P. Minguez, A. Schultz, I. Smith. Measurers
   K. Chambers, T. de Boer, J. Fairlamb, H. Gao, M. Huber, C.-C. Lin, E.
   Magnier, Y. Ramanjooloo, R. Wainscoat, R. Weryk. 1.8-m Ritchey-Chrétien +
   CCD.

Orbital elements:  P12fYSQ
   Perihelion 2025 Dec 25.269896 +/- 52 TT =  6:28:38.9 (JD 2461034.769896)
Epoch 2025 Sep 30.0 TT = JDT 2460948.5   Earth MOID: 0.1575   Ma: 0.0791
M 337.593296579 +/- 20              (J2000 ecliptic)             AutoNEOCP
n   0.259727953 +/- 0.252           Peri.  311.457886 +/- 100
a   2.432896238 +/- 1.57            Node   133.533514 +/- 54
e   0.54271936 +/- 0.246            Incl.    7.137986 +/- 6
P   3.79477                H 22.16  G  0.15   U 11.8  SR
q 1.112516336 +/- 0.493    Q 3.753276140 +/- 73.8
From 3 observations 2025 Sept. 30 (34.2 min); mean residual 0".11
Residuals in arcseconds: 
250930 F51  .02+  .11-    250930 F51  .04-  .22+    250930 F51  .02+  .11-    

Ephemerides (geocentric):
Date (UTC) HH   RA             Dec           delta  r     elong  mag " sig PA
---- --------  ------------   ------------  ------ ------ -----  --- --------
2025 10 18 02  01 48 03.764   -14 29 24.88  .39336 1.3644 155.6 21.7  55d  90
2025 10 18 03  01 48 03.501   -14 30 19.23  .39315 1.3641 155.6 21.7  56d  90
2025 10 18 04  01 48 03.237   -14 31 13.58  .39293 1.3639 155.6 21.7  56d  89
2025 10 18 05  01 48 02.972   -14 32 07.91  .39272 1.3636 155.5 21.7  56d  89
2025 10 18 06  01 48 02.705   -14 33 02.24  .39251 1.3633 155.5 21.7  56d  89
2025 10 18 07  01 48 02.438   -14 33 56.56  .39230 1.3631 155.5 21.7  57d  89
2025 10 18 08  01 48 02.169   -14 34 50.87  .39209 1.3628 155.5 21.7  57d  89
2025 10 18 09  01 48 01.899   -14 35 45.16  .39188 1.3626 155.5 21.7  57d  89
2025 10 18 10  01 48 01.628   -14 36 39.45  .39167 1.3623 155.4 21.7  57d  89
2025 10 18 11  01 48 01.356   -14 37 33.73  .39146 1.3620 155.4 21.7  57d  89
2025 10 18 12  01 48 01.082   -14 38 28.00  .39125 1.3618 155.4 21.7  57d  89
2025 10 18 13  01 48 00.808   -14 39 22.26  .39104 1.3615 155.4 21.7  58d  89
2025 10 18 14  01 48 00.532   -14 40 16.50  .39083 1.3613 155.3 21.7  58d  89
2025 10 18 15  01 48 00.255   -14 41 10.74  .39062 1.3610 155.3 21.7  58d  89
2025 10 18 16  01 47 59.977   -14 42 04.97  .39041 1.3607 155.3 21.7  58d  89
2025 10 18 17  01 47 59.698   -14 42 59.18  .39020 1.3605 155.3 21.7  58d  90
2025 10 18 18  01 47 59.418   -14 43 53.38  .38999 1.3602 155.2 21.7  58d  90
2025 10 18 19  01 47 59.136   -14 44 47.58  .38978 1.3600 155.2 21.7  58d  90
2025 10 18 20  01 47 58.854   -14 45 41.76  .38958 1.3597 155.2 21.7  58d  90
2025 10 18 21  01 47 58.571   -14 46 35.93  .38937 1.3594 155.2 21.7  58d  90
2025 10 18 22  01 47 58.286   -14 47 30.09  .38916 1.3592 155.1 21.7  59d  90
2025 10 18 23  01 47 58.000   -14 48 24.23  .38895 1.3589 155.1 21.7  59d  90
2025 10 19 00  01 47 57.714   -14 49 18.37  .38875 1.3587 155.1 21.7  59d  90
2025 10 19 01  01 47 57.426   -14 50 12.49  .38854 1.3584 155.1 21.7  59d  90
2025 10 19 02  01 47 57.137   -14 51 06.60  .38833 1.3581 155.0 21.7  59d  90
2025 10 19 03  01 47 56.847   -14 52 00.70  .38813 1.3579 155.0 21.7  59d  90
2025 10 19 04  01 47 56.557   -14 52 54.78  .38792 1.3576 155.0 21.7  59d  90
2025 10 19 05  01 47 56.265   -14 53 48.85  .38771 1.3574 155.0 21.7  59d  90
2025 10 19 06  01 47 55.972   -14 54 42.91  .38751 1.3571 154.9 21.7  59d  90
2025 10 19 07  01 47 55.678   -14 55 36.96  .38730 1.3568 154.9 21.7  59d  91
2025 10 19 08  01 47 55.383   -14 56 30.99  .38710 1.3566 154.9 21.7  59d  91
2025 10 19 09  01 47 55.087   -14 57 25.01  .38689 1.3563 154.9 21.7  59d  91
2025 10 19 10  01 47 54.790   -14 58 19.02  .38669 1.3561 154.8 21.7  59d  91
2025 10 19 11  01 47 54.492   -14 59 13.01  .38648 1.3558 154.8 21.7  59d  91
2025 10 19 12  01 47 54.193   -15 00 06.99  .38628 1.3556 154.8 21.7  59d  91
2025 10 19 13  01 47 53.894   -15 01 00.96  .38608 1.3553 154.8 21.7  59d  91
2025 10 19 14  01 47 53.593   -15 01 54.91  .38587 1.3550 154.7 21.7  59d  91
2025 10 19 15  01 47 53.291   -15 02 48.84  .38567 1.3548 154.7 21.7  59d  91
2025 10 19 16  01 47 52.988   -15 03 42.77  .38546 1.3545 154.7 21.7  59d  91
2025 10 19 17  01 47 52.685   -15 04 36.67  .38526 1.3543 154.7 21.7  59d  91
2025 10 19 18  01 47 52.380   -15 05 30.57  .38506 1.3540 154.6 21.7  59d  91
2025 10 19 19  01 47 52.075   -15 06 24.45  .38486 1.3537 154.6 21.7  59d  91
2025 10 19 20  01 47 51.768   -15 07 18.31  .38465 1.3535 154.6 21.7  59d  91
2025 10 19 21  01 47 51.461   -15 08 12.16  .38445 1.3532 154.6 21.7  59d  92
2025 10 19 22  01 47 51.153   -15 09 05.99  .38425 1.3530 154.5 21.7  60d  92
2025 10 19 23  01 47 50.844   -15 09 59.81  .38405 1.3527 154.5 21.7  60d  92
2025 10 20 00  01 47 50.534   -15 10 53.61  .38385 1.3525 154.5 21.7  60d  92
2025 10 20 01  01 47 50.223   -15 11 47.40  .38364 1.3522 154.5 21.7  60d  92